Theta_e
304 304 304 304 304 304 303 303 303 302 302 301 301 302 302 302 302 301 303 305 306 307 308 311 314 316 318 319 319 318 319 320 322 323 323 322 322 322 322 322 322 323 323 322 322 322 323 323 322 322 321 321 321 320 321 321 323 324 324 325 326 326 326 326 327 327 327 328 328 328 328 327 327 326
305 305 305 305 305 305 305 304 304 303 302 303 303 304 304 304 304 304 303 303 303 303 304 305 308 310 311 313 314 314 313 313 315 318 320 321 322 322 322 321 321 321 321 321 321 321 321 320 318 317 318 318 317 317 317 318 319 320 322 323 324 325 325 326 326 327 326 327 327 328 328 327 327 327
307 306 307 307 307 307 306 306 306 305 304 305 306 305 306 306 305 305 306 305 305 305 305 304 305 305 306 306 307 307 307 306 307 309 311 313 315 317 319 320 320 320 320 320 320 320 319 317 315 314 315 316 317 316 316 316 316 317 318 320 321 323 324 324 325 325 325 326 327 327 327 327 328 327
308 307 307 307 308 308 308 308 308 308 307 308 308 308 307 306 306 306 306 306 307 307 306 306 305 305 305 305 304 305 305 305 305 305 305 305 306 308 309 312 313 315 316 316 317 317 317 316 316 315 316 317 317 316 316 317 318 318 318 317 318 319 321 322 322 323 323 323 324 325 327 327 327 327
307 308 307 307 308 308 308 309 309 310 309 309 309 308 308 307 306 306 306 306 307 308 307 306 306 305 305 305 304 304 305 305 304 304 304 304 304 304 304 305 306 307 307 308 310 311 313 314 316 316 317 318 316 315 316 317 318 318 318 317 316 316 316 318 319 319 319 320 321 322 324 325 326 326
307 307 307 307 307 307 308 308 309 309 309 309 309 308 307 307 306 305 305 305 305 307 307 307 306 305 305 304 304 303 303 304 304 304 303 303 304 303 304 304 305 306 306 306 307 308 309 310 312 313 314 314 314 313 314 315 315 315 315 314 314 314 314 314 314 315 316 317 318 318 319 321 322 323
308 307 308 307 307 307 307 307 308 308 308 308 308 308 307 306 305 304 304 304 304 305 306 306 306 305 304 303 302 302 303 303 304 304 303 303 303 303 304 305 306 307 308 308 308 308 309 309 309 309 310 310 311 311 312 313 313 313 313 313 314 314 314 313 312 312 312 313 314 316 317 318 318 320
310 309 308 307 308 308 308 307 307 308 308 307 307 307 307 306 305 304 303 303 303 303 304 305 305 304 303 302 301 301 302 303 303 303 304 303 303 303 304 305 307 308 309 310 310 310 311 311 311 311 310 310 310 311 311 311 312 312 312 312 313 314 314 314 312 311 311 311 311 313 315 316 317 318
313 312 310 308 308 308 308 308 308 308 308 308 307 307 306 305 305 304 304 304 304 303 302 303 304 303 302 302 301 300 301 302 302 302 303 304 304 305 305 305 306 307 308 309 309 309 309 310 311 312 312 312 311 312 312 312 313 313 313 313 314 315 315 314 312 311 310 310 309 310 312 315 318 318
315 314 313 310 309 309 308 308 308 308 308 308 307 306 306 305 305 306 306 306 305 304 302 302 302 302 301 301 301 300 299 300 300 301 302 303 304 305 305 305 306 306 307 308 308 308 307 307 307 308 310 311 311 312 312 313 314 314 314 315 315 316 316 314 313 313 311 310 308 308 309 312 316 318
315 315 313 311 310 310 310 309 308 308 308 308 307 306 306 306 307 307 306 306 305 303 302 301 301 300 299 299 299 299 299 298 299 299 300 301 302 303 303 303 304 305 305 305 305 305 306 305 305 306 308 309 310 310 311 311 312 312 312 314 315 316 316 315 315 315 314 312 310 309 309 312 315 317
315 314 314 313 311 311 310 310 309 308 308 308 307 307 307 307 307 306 305 304 303 302 301 300 299 299 299 298 298 298 298 298 298 298 298 299 299 299 300 300 302 303 304 303 303 303 302 303 306 308 309 310 310 311 311 311 311 311 312 313 314 315 316 316 316 316 316 315 313 311 311 313 315 317
316 315 314 313 312 312 312 311 309 309 308 308 308 308 308 308 307 305 304 302 301 300 299 298 298 298 298 297 297 298 297 297 298 298 298 298 298 298 299 299 299 300 301 302 303 304 303 303 306 309 309 309 309 309 311 312 313 313 313 314 315 316 316 316 316 317 317 316 315 314 313 313 314 315
316 315 314 313 313 312 312 311 311 310 309 308 308 308 308 308 307 305 303 301 300 299 298 298 297 297 297 297 297 296 297 296 297 297 297 297 298 298 298 299 298 298 299 300 301 303 304 304 305 307 308 308 307 306 307 309 311 313 313 314 316 316 316 317 317 317 317 316 316 315 314 314 314 314
316 315 314 314 313 313 312 312 311 311 309 309 309 309 309 308 308 305 302 301 299 299 298 297 297 296 296 297 296 296 296 296 296 296 296 296 296 296 297 298 298 298 298 298 299 300 301 301 301 302 303 303 302 301 303 305 307 310 311 312 314 314 315 315 316 317 317 316 316 315 314 313 313 314
315 315 315 314 313 312 312 312 311 310 309 309 310 310 309 309 308 306 303 301 300 299 298 298 297 296 296 296 296 296 296 296 296 296 296 296 295 296 296 296 296 297 297 297 297 297 298 298 298 298 299 299 299 299 301 302 304 305 307 309 310 311 312 312 313 314 316 316 316 315 314 313 313 313
315 314 314 313 313 312 311 312 311 310 309 310 311 310 309 308 307 305 303 301 300 300 299 298 298 297 296 296 296 295 295 295 295 296 296 295 295 295 295 295 296 296 296 296 296 297 297 297 298 298 298 298 298 298 299 300 301 301 302 304 305 307 308 309 311 311 312 312 312 312 313 314 314 315
316 315 314 313 313 312 311 310 310 309 309 309 309 309 308 307 305 304 302 301 300 300 299 299 298 297 296 296 295 295 295 295 295 295 295 295 295 295 295 296 296 296 296 295 296 297 297 297 297 297 298 298 298 298 298 299 300 299 300 301 302 303 304 306 308 309 310 310 310 311 312 313 314 314
315 314 313 312 311 311 311 310 309 308 307 307 307 307 306 305 303 302 301 301 300 300 299 299 298 297 296 296 295 295 295 295 295 295 295 295 295 295 295 295 296 296 295 295 296 296 297 296 297 297 297 298 298 298 298 298 298 298 299 300 301 302 303 303 304 306 307 308 308 309 310 311 312 312
314 312 312 311 310 309 309 308 307 306 306 306 305 305 304 303 302 302 301 301 300 300 299 298 298 297 296 296 295 295 295 295 295 295 295 295 294 294 294 294 295 296 296 295 295 295 296 296 296 297 297 297 298 298 298 298 298 299 300 301 302 303 304 304 304 305 305 305 306 307 308 309 310 311
313 311 311 311 310 308 307 306 305 305 305 305 304 303 302 302 302 301 301 300 300 300 299 299 298 297 296 296 295 295 295 295 295 295 295 294 294 294 293 293 294 295 296 295 294 294 295 296 296 297 297 298 298 298 298 299 299 299 300 301 302 304 305 306 307 307 307 307 307 307 307 307 308 309
311 310 309 309 309 307 306 305 305 305 305 305 303 302 302 302 301 301 301 300 300 300 299 298 298 297 296 296 295 295 295 295 294 294 294 293 293 293 293 293 293 293 294 295 294 294 295 296 296 296 297 297 297 298 299 299 299 300 301 302 302 303 305 306 306 307 307 307 307 308 308 308 309 309
309 309 308 308 307 306 306 306 306 305 305 304 303 302 302 301 301 301 301 300 300 299 298 298 297 296 295 295 294 294 294 294 293 293 293 293 293 293 292 292 292 293 293 294 294 294 294 295 295 295 295 296 297 297 298 299 299 299 300 301 302 303 303 304 305 306 306 306 306 307 307 307 308 308
308 308 308 308 307 306 306 305 304 304 303 303 302 302 302 301 301 301 300 299 299 298 297 296 295 294 294 294 293 293 293 293 293 293 293 293 292 292 292 292 292 292 293 293 293 293 294 294 294 294 295 296 296 296 297 297 298 298 299 299 300 301 301 302 303 304 305 305 305 305 305 306 306 306
308 307 306 306 305 305 304 304 303 302 302 301 301 301 301 300 300 299 298 298 297 296 295 294 294 294 294 293 293 293 293 293 292 292 292 292 292 292 292 292 292 292 292 292 292 293 293 294 294 294 294 295 296 296 296 296 296 297 297 298 298 299 299 300 301 302 303 303 303 303 304 305 305 305
307 306 305 304 303 303 302 302 301 301 300 300 300 300 299 298 297 297 296 295 295 294 294 294 294 293 293 293 292 292 292 292 292 291 291 291 291 291 291 292 292 292 292 292 292 292 293 293 293 294 294 295 295 295 296 295 295 296 296 297 298 298 298 298 299 299 300 300 301 302 302 303 304 304
306 305 304 304 302 301 301 300 300 300 300 300 299 297 296 295 295 294 294 294 294 294 294 294 293 293 292 292 292 291 291 291 291 291 291 291 291 291 291 292 292 292 292 292 293 292 293 293 293 293 294 295 295 295 295 295 295 295 296 296 297 297 297 297 297 297 298 298 299 299 300 301 302 303
305 303 303 302 302 301 300 300 299 299 298 297 295 295 295 294 294 294 294 294 294 293 293 293 292 292 291 291 291 290 290 291 291 291 291 291 291 291 292 292 292 292 292 293 293 293 293 293 293 293 293 294 295 295 295 295 295 295 296 296 296 296 296 296 296 297 297 297 297 298 298 299 300 301
303 302 300 299 299 298 297 297 296 296 295 295 295 295 295 295 294 294 294 293 293 292 292 292 291 291 291 290 290 290 290 290 290 290 290 291 291 291 292 291 291 291 292 292 293 293 293 293 294 294 294 294 294 295 295 295 295 296 296 296 296 296 296 296 296 296 296 297 297 297 297 298 299 300
299 298 296 295 295 295 295 296 296 296 295 295 294 294 294 294 294 294 293 293 292 291 291 291 291 291 291 290 290 290 290 290 290 290 290 290 291 291 291 291 291 291 291 291 292 292 293 294 294 294 294 294 294 295 295 295 295 295 295 295 296 296 296 296 296 296 296 297 297 297 297 297 298 299
295 295 294 294 295 295 295 295 294 294 294 294 294 294 294 294 293 293 292 292 291 291 291 291 291 290 290 290 290 290 290 290 290 290 290 290 290 290 291 291 290 290 291 291 291 292 293 293 294 294 295 295 295 295 295 295 295 295 295 295 295 296 296 296 296 296 296 297 297 297 297 297 298 298
295 295 295 295 295 294 294 293 293 293 293 293 294 293 293 293 292 292 291 291 291 291 291 290 290 290 290 290 290 291 291 291 290 290 290 290 290 290 291 290 290 290 290 290 291 291 292 292 293 294 295 295 295 295 295 295 295 295 296 296 296 296 296 297 297 297 296 296 297 297 297 297 298 298
296 296 295 295 294 293 293 293 293 293 293 293 293 292 292 292 291 291 291 290 290 290 290 290 290 289 290 290 290 290 290 290 291 291 290 290 290 290 290 290 290 290 290 290 291 291 291 292 292 293 294 294 295 295 295 295 295 295 295 295 295 295 296 296 296 296 296 296 296 296 297 298 298 298
296 295 295 294 293 293 293 293 293 293 293 292 292 292 291 291 291 290 290 290 290 290 289 289 289 289 289 289 290 290 290 290 290 291 291 290 290 290 290 290 290 290 290 290 290 291 291 291 291 292 293 293 294 294 295 295 295 295 295 294 294 294 295 295 295 295 296 296 296 296 297 298 298 297
295 294 294 293 293 293 293 293 293 292 292 292 292 292 291 291 290 290 290 290 289 289 289 288 288 289 289 290 290 290 290 290 290 291 290 290 290 290 290 290 290 290 290 290 290 290 290 290 291 291 292 292 293 293 294 294 294 294 294 294 294 295 295 295 295 295 296 296 296 296 297 297 297 297
294 293 293 293 293 293 293 293 292 292 292 291 291 291 291 290 290 290 290 289 289 288 288 289 289 289 290 290 290 290 290 290 290 290 290 290 290 290 290 290 290 290 290 290 290 290 290 290 290 291 291 292 292 293 293 294 294 294 294 295 295 295 296 296 296 296 296 296 296 296 296 297 297 297
293 292 292 292 293 292 292 292 292 292 292 291 291 290 290 290 290 289 289 288 288 289 289 289 290 290 290 290 290 290 290 290 289 289 290 290 289 289 289 289 290 290 290 290 290 290 290 290 290 291 291 291 292 292 293 293 294 294 295 295 296 296 296 296 296 296 296 296 296 296 296 296 297 297
292 292 292 292 292 292 292 292 292 292 291 291 290 290 290 289 289 289 289 289 289 289 290 290 290 290 290 290 290 290 289 289 289 289 290 290 289 289 289 289 289 289 290 290 290 290 290 290 290 291 291 291 292 292 293 293 294 294 295 295 295 296 296 296 296 296 296 296 296 296 296 296 297 297
291 291 292 291 291 292 292 292 292 291 290 290 290 289 289 289 289 289 289 289 290 290 290 290 290 290 290 290 290 290 289 289 289 289 289 290 289 289 289 289 289 289 289 289 290 290 290 290 290 291 291 291 292 292 292 293 293 294 295 295 295 295 295 296 296 296 296 296 297 296 296 296 296 296
291 291 291 292 292 292 292 292 291 290 290 290 289 289 289 289 289 289 290 290 290 290 290 290 290 290 290 290 290 290 290 290 290 290 290 290 290 290 289 289 289 289 289 289 290 290 290 291 291 291 291 291 291 292 292 293 293 294 294 295 295 295 295 296 296 296 296 296 297 297 297 296 296 296
291 291 292 292 292 292 292 291 291 290 290 289 289 288 288 288 289 290 290 290 290 290 290 290 290 290 290 290 290 290 290 290 290 290 290 290 290 290 290 290 290 290 290 290 290 290 290 291 291 291 291 292 292 292 292 293 293 294 294 295 295 295 295 296 296 296 297 297 297 297 296 296 296 296
291 292 292 292 292 292 292 292 291 290 289 288 287 287 287 288 289 290 290 290 290 290 290 290 290 290 291 291 290 290 290 290 291 291 290 290 290 291 291 291 291 291 291 290 291 291 291 291 291 291 292 292 292 292 292 293 293 294 294 295 295 295 296 296 297 297 297 297 296 296 296 295 295 295
292 292 292 292 292 292 292 291 290 289 288 287 287 286 286 287 289 290 290 290 290 290 290 290 290 291 291 291 290 291 291 291 291 291 291 291 291 291 292 292 292 292 292 291 292 292 292 292 292 292 292 292 292 293 293 293 294 294 294 295 295 296 296 296 297 297 297 296 296 295 295 296 295 295
292 292 292 292 292 292 292 290 288 288 287 287 287 286 286 287 289 290 290 290 290 290 290 291 291 291 291 291 291 291 291 291 291 291 291 292 292 292 293 294 294 293 293 292 292 292 292 292 293 293 293 293 293 293 293 294 294 294 295 295 295 296 296 296 296 296 296 295 295 295 295 295 295 295
292 292 292 292 292 291 290 289 288 288 288 288 287 286 286 287 290 291 291 290 290 290 290 291 291 291 291 291 291 291 291 291 291 292 292 292 293 293 294 295 295 295 294 294 293 293 293 293 293 294 294 294 294 294 294 294 294 295 295 295 295 296 295 295 296 296 295 295 295 295 294 294 294 294
Wind_Speed
4 4 3 2 1 1 2 3 4 4 5 6 7 8 9 9 9 7 5 4 3 5 6 6 7 7 7 6 5 5 5 6 7 8 9 10 11 12 12 12 11 11 11 13 14 13 13 13 14 14 14 14 15 16 17 18 20 21 22 22 21 21 21 21 22 24 24 25 28 29 28 27 25 23
4 4 3 3 3 3 4 5 5 5 4 5 7 8 9 10 10 10 10 9 7 7 7 7 9 10 10 11 12 12 12 12 11 12 13 14 15 15 15 15 14 14 14 14 16 16 16 16 17 17 17 16 15 15 16 17 19 21 22 22 22 22 22 22 22 24 24 25 26 28 27 27 27 27
3 3 2 2 2 3 4 4 5 5 4 5 6 7 8 10 11 12 13 13 11 11 10 9 9 11 12 13 14 14 14 14 14 14 15 16 17 18 18 18 18 18 18 18 18 19 19 19 20 21 20 18 16 15 14 14 16 18 19 21 21 21 21 22 22 22 23 25 27 28 28 27 27 28
0 0 0 1 0 1 2 3 4 5 5 6 6 6 7 9 10 12 14 16 14 13 13 12 10 11 12 12 13 14 13 12 12 12 12 14 15 16 17 17 18 20 21 21 21 21 21 21 20 20 19 18 17 16 16 15 15 16 17 18 19 20 21 21 22 22 23 24 25 27 29 30 28 28
3 3 3 4 4 3 1 2 3 4 4 5 6 7 8 9 10 12 14 17 18 15 14 15 14 13 13 12 12 13 12 11 11 10 10 10 10 11 11 11 12 13 15 17 19 20 20 20 20 21 21 20 20 19 18 18 18 18 17 18 18 19 20 21 22 23 24 24 23 23 25 26 26 26
5 6 6 6 6 5 5 4 3 4 4 4 5 6 8 9 11 13 15 17 20 19 18 17 16 15 15 14 14 14 13 12 11 10 9 9 8 8 8 8 7 7 8 9 11 13 15 17 18 20 21 22 22 22 20 20 20 20 19 18 18 19 20 21 22 22 23 24 24 23 22 22 22 22
8 8 8 8 8 7 7 6 5 6 6 6 6 6 8 9 10 13 15 16 19 21 21 19 18 18 17 16 16 15 15 14 13 12 10 9 8 7 7 7 6 6 7 8 8 9 11 12 14 16 17 18 20 21 21 21 21 20 20 20 20 21 21 22 22 22 22 23 23 24 24 23 22 20
11 11 11 11 11 9 8 7 7 6 7 7 7 7 8 9 11 12 14 16 17 20 21 21 20 19 18 17 16 16 16 15 14 13 11 10 9 8 8 8 8 8 9 9 9 9 10 12 13 14 15 16 17 19 20 20 20 20 20 20 19 19 20 21 21 22 22 22 23 23 24 23 23 22
13 13 13 13 14 12 10 9 9 8 8 7 7 8 8 9 12 13 14 15 16 18 20 20 19 18 18 17 16 16 17 17 17 15 13 12 13 12 11 9 9 10 11 12 12 12 12 13 15 16 16 17 17 18 18 18 18 17 17 17 17 17 17 17 18 19 20 21 22 23 23 23 22 22
14 14 14 15 15 14 12 11 11 9 9 8 8 9 10 11 12 14 14 15 16 17 19 20 20 19 18 17 16 16 17 19 20 20 18 15 15 16 15 12 11 12 13 14 15 16 17 18 19 19 18 18 19 19 19 19 18 18 17 17 17 17 17 17 16 17 17 18 19 21 22 23 22 22
17 16 16 17 17 16 14 14 12 10 10 9 9 10 10 12 13 14 15 16 17 18 18 18 18 18 18 18 18 17 17 18 20 21 22 21 18 18 18 17 16 17 17 18 19 20 21 22 20 18 17 18 18 18 20 20 20 21 20 20 19 18 18 18 18 17 17 17 17 17 19 20 21 21
20 19 19 19 18 17 16 15 14 12 11 11 11 11 12 13 14 15 16 17 17 17 16 16 17 17 18 18 18 18 18 19 19 20 22 24 24 23 22 21 21 22 22 22 22 22 21 20 18 16 15 15 16 16 17 18 20 21 21 21 21 21 21 20 20 20 19 18 16 15 16 17 19 20
23 22 22 21 20 19 18 17 16 14 13 12 12 12 13 15 16 16 17 17 16 15 15 15 16 17 17 18 19 19 19 20 20 21 22 24 26 27 26 24 23 24 25 25 24 23 21 20 19 17 16 16 17 17 16 16 17 19 20 19 18 20 22 23 24 23 22 19 16 14 14 15 17 18
27 25 25 24 23 21 20 19 18 17 16 15 14 14 15 16 18 18 17 16 15 15 16 16 17 18 18 18 19 20 20 20 21 22 23 25 26 27 29 27 23 23 25 27 27 24 21 22 23 22 20 20 21 23 21 20 18 17 17 17 17 17 18 21 24 25 24 20 17 16 15 15 16 17
31 28 28 27 26 25 23 21 20 19 17 15 15 16 17 19 19 19 17 17 17 17 18 19 19 20 21 21 21 22 23 23 23 23 23 25 26 27 28 29 27 24 25 28 31 29 26 26 28 28 27 26 27 28 27 26 23 20 18 17 17 17 17 18 20 22 24 23 20 19 19 18 18 18
32 30 30 30 29 28 25 22 21 19 17 16 17 19 20 21 22 21 19 18 19 20 21 22 23 23 24 24 24 25 26 26 27 27 26 27 28 28 28 30 30 28 26 29 33 33 30 29 30 30 30 29 28 29 30 29 28 26 23 21 20 19 18 19 19 20 22 23 23 22 22 21 21 20
32 32 32 32 32 31 26 22 22 20 18 18 20 21 22 23 23 22 21 20 21 22 24 25 26 26 27 28 28 27 28 29 30 31 31 31 32 33 33 33 33 31 28 29 32 34 31 29 30 30 29 28 26 27 30 31 30 29 27 26 25 23 22 21 20 20 21 22 23 23 23 22 23 23
33 33 33 33 33 30 25 22 22 20 18 19 20 22 23 24 23 22 21 21 22 24 25 27 28 29 30 31 31 31 30 31 31 32 34 35 35 37 37 37 37 35 32 29 30 33 33 31 31 30 28 27 26 26 29 31 31 30 28 26 25 26 25 24 23 22 21 21 22 22 22 23 23 24
32 31 31 31 30 26 22 22 22 20 19 20 21 23 24 23 22 21 21 22 23 25 27 29 31 31 32 32 33 33 33 33 33 34 35 36 37 39 40 40 39 37 35 31 28 31 33 32 33 32 29 27 27 26 28 30 29 29 28 25 23 23 24 25 25 25 24 24 24 24 23 23 23 24
28 27 29 31 30 25 22 22 21 20 21 22 23 23 23 22 21 21 22 24 26 27 29 31 32 33 34 34 35 35 35 36 36 37 38 39 40 41 43 44 42 39 37 34 30 32 35 35 33 30 26 25 26 25 25 26 26 26 25 24 23 21 21 22 23 24 24 24 24 24 24 24 23 23
26 27 30 31 28 23 21 20 20 21 22 23 23 23 22 22 21 21 23 25 27 29 31 32 33 34 34 35 36 37 37 39 40 41 43 44 43 44 45 46 45 42 39 37 35 35 36 32 28 24 22 21 20 19 20 21 21 22 22 22 21 20 18 18 18 19 20 21 22 23 23 23 24 24
24 25 26 25 22 21 22 23 23 24 23 23 23 23 23 23 22 23 25 27 28 30 32 32 33 34 35 36 38 39 40 40 40 41 42 41 41 41 42 42 43 42 40 36 32 30 29 26 23 24 25 24 19 15 15 17 17 16 16 17 19 19 19 18 17 17 17 17 18 19 20 21 22 22
24 24 23 22 22 23 25 25 25 24 24 23 23 24 24 24 25 26 28 30 31 32 34 35 36 37 38 38 38 37 37 35 33 32 32 32 32 34 35 34 35 37 36 29 24 24 26 26 26 25 25 26 24 17 13 15 16 16 14 14 15 18 20 19 18 17 16 16 16 16 17 19 20 21
23 24 24 24 25 25 26 25 24 24 24 24 24 24 24 25 27 28 30 32 34 36 37 38 39 38 37 35 34 32 31 30 28 27 26 26 26 27 29 29 29 31 32 27 22 23 25 26 26 23 21 24 26 23 19 18 18 19 19 18 17 19 20 20 20 19 18 17 17 16 17 17 18 20
21 22 23 23 23 24 24 24 24 24 23 22 22 23 25 27 29 31 33 35 36 37 38 37 37 35 34 33 31 29 28 27 27 27 25 23 22 23 24 26 27 29 31 27 23 23 24 24 24 23 22 23 25 26 25 24 23 23 23 23 22 22 21 21 21 21 21 20 19 17 16 16 17 19
21 21 21 21 22 22 22 23 23 22 21 22 23 26 28 29 31 32 34 35 35 36 35 35 34 33 32 32 31 29 28 27 26 26 24 22 22 22 22 23 26 29 30 27 23 24 26 26 25 24 23 24 25 26 27 27 27 26 25 23 22 22 22 23 23 23 23 23 22 19 18 16 17 18
20 21 21 22 22 21 21 22 22 23 24 26 28 29 29 30 31 32 32 32 33 32 32 32 32 32 32 32 31 29 28 27 26 25 25 24 24 24 24 24 25 28 29 27 24 23 25 27 26 26 26 27 27 28 28 28 28 26 24 23 24 25 26 25 25 25 25 25 26 25 23 21 19 19
20 21 22 22 23 23 23 24 26 27 28 28 28 28 28 29 30 30 30 30 29 29 30 31 32 32 31 30 29 29 28 27 27 27 27 27 27 27 27 27 27 28 28 28 26 25 25 27 27 27 27 28 29 30 30 29 28 26 24 24 25 26 27 26 25 24 23 24 24 24 23 22 22 21
21 21 22 22 23 23 24 25 26 26 26 27 26 26 27 28 28 27 27 27 27 28 29 30 30 30 29 29 29 29 29 28 29 29 29 29 29 29 29 30 31 31 30 29 28 27 26 27 27 27 28 29 30 31 31 30 28 27 25 24 24 24 24 24 23 21 20 20 19 19 19 20 20 20
19 20 20 19 19 20 21 23 24 25 25 25 24 24 24 25 25 25 26 27 27 28 29 29 30 30 30 31 31 30 29 29 29 29 29 30 30 30 31 32 33 33 32 31 30 28 28 28 28 29 30 29 30 30 30 30 29 28 26 24 24 24 24 23 22 21 21 20 19 20 19 17 17 19
15 16 16 17 17 19 20 21 22 22 22 21 21 22 23 24 25 26 26 26 26 27 28 30 31 33 33 34 33 31 30 30 29 28 29 31 32 32 32 34 35 34 33 32 30 28 28 29 29 29 29 30 30 30 28 28 29 29 27 24 25 27 26 25 24 23 22 22 23 22 20 17 17 18
13 15 16 17 17 18 18 18 19 19 20 21 23 24 25 25 25 25 25 25 26 28 30 32 33 34 34 34 33 32 31 30 29 28 28 31 32 32 32 34 35 35 34 32 30 28 28 29 29 28 28 29 30 29 27 27 28 28 28 26 26 27 26 25 25 25 24 25 26 23 20 19 18 18
14 15 16 16 17 17 18 18 19 20 22 23 24 23 23 23 23 23 24 26 27 29 31 32 34 34 34 34 33 32 31 31 30 29 29 30 31 31 31 33 35 34 34 33 31 29 28 28 28 29 29 29 29 28 27 28 28 28 29 28 28 29 29 28 28 28 28 28 27 24 21 19 17 16
14 15 15 16 17 17 18 18 20 21 22 22 21 20 20 21 22 24 25 27 28 31 33 33 33 32 33 33 33 31 31 31 31 30 31 31 31 30 31 33 34 33 32 32 31 30 29 28 27 28 28 29 29 29 28 28 29 31 32 32 32 33 32 30 30 29 29 27 25 22 20 19 17 18
14 14 15 15 16 16 17 18 19 19 19 18 19 20 21 22 24 26 28 29 32 33 33 31 29 28 29 30 31 31 31 32 32 32 32 31 31 31 31 32 33 32 31 31 31 29 27 26 25 25 26 28 29 30 30 30 30 32 32 32 31 30 29 28 27 26 25 23 20 19 19 19 19 20
13 13 13 13 14 15 15 16 16 16 17 17 19 21 23 25 27 29 31 32 31 29 27 26 26 27 28 29 30 31 31 31 32 32 32 32 31 31 31 31 31 31 31 31 30 28 25 24 22 23 25 25 26 29 30 27 25 25 25 25 24 23 23 21 19 19 19 19 18 17 17 18 18 18
10 10 10 11 12 14 15 15 15 15 16 18 20 22 24 26 28 29 28 26 25 23 23 24 26 27 28 28 28 29 29 29 30 30 31 31 31 30 30 30 30 30 30 30 29 27 24 22 21 21 22 24 25 27 28 24 20 19 19 19 17 16 15 15 14 14 14 15 15 15 16 16 17 16
7 8 9 11 13 14 14 14 14 15 16 18 20 22 23 24 24 23 22 22 22 23 23 24 25 25 26 26 26 27 27 27 28 29 29 30 30 29 29 29 30 30 30 29 29 27 24 23 21 20 20 22 25 26 24 21 19 18 16 14 13 12 11 12 13 12 12 13 15 16 16 17 17 16
7 9 11 12 13 13 13 13 13 15 16 17 18 20 21 22 22 22 21 21 22 23 24 24 24 25 25 25 25 25 26 26 26 27 28 28 28 28 28 28 28 28 28 28 28 26 24 23 22 21 20 22 24 23 21 21 20 18 15 14 14 13 12 13 13 13 13 15 17 18 19 19 17 14
8 10 11 11 11 12 11 11 11 12 14 16 17 18 19 20 20 20 20 21 22 23 24 25 25 25 25 24 24 24 25 25 25 25 26 26 26 26 26 26 27 27 27 27 27 26 25 24 23 21 20 20 20 19 19 21 21 18 15 14 15 15 15 14 14 14 15 17 18 19 21 20 17 13
8 9 9 9 9 10 9 9 10 12 14 15 16 18 19 20 20 20 20 21 22 24 25 25 25 25 24 24 23 23 24 25 25 25 25 25 25 25 25 25 25 25 25 26 27 26 24 22 20 18 18 19 18 18 19 21 20 16 13 13 13 13 13 13 14 14 15 16 17 20 21 19 16 13
8 7 7 7 8 7 7 8 10 12 13 15 18 20 22 23 22 21 21 21 22 24 26 26 25 25 24 24 23 23 23 23 24 24 23 23 24 24 24 23 24 24 24 25 25 23 21 19 17 16 16 16 17 18 19 18 16 13 11 11 12 11 10 10 12 13 13 12 13 16 18 17 15 14
6 5 5 6 6 5 6 8 10 12 15 18 21 23 24 25 24 23 22 23 23 24 26 27 25 24 24 24 22 21 21 22 22 23 23 22 22 22 22 22 22 23 23 23 22 20 17 16 15 14 14 14 15 16 16 14 12 11 11 11 11 10 9 7 7 8 10 9 9 11 14 15 12 10
4 4 5 5 4 5 6 8 11 15 18 21 23 24 25 26 25 24 23 23 24 25 27 27 25 24 24 24 23 22 21 20 21 21 21 21 20 19 20 20 20 20 19 19 18 16 14 12 11 11 12 12 14 14 13 12 11 11 11 11 11 11 9 7 5 6 10 11 8 7 9 11 8 4
4 4 4 4 4 5 6 10 14 17 19 22 24 25 26 26 26 25 24 24 24 26 27 27 25 23 23 23 23 23 21 20 20 19 19 18 18 18 18 18 17 16 14 13 12 11 9 8 8 8 8 10 12 12 12 12 11 11 11 11 12 11 8 6 6 7 11 11 7 6 7 8 7 4
Wind_Direction
91 83 76 76 74 63 34 7 2 5 3 2 2 3 8 9 10 12 4 343 319 317 310 291 274 273 283 282 274 282 280 266 263 259 255 256 255 253 255 259 262 265 270 274 274 274 275 278 281 285 288 290 291 290 289 287 284 281 280 281 282 280 280 272 263 265 268 262 254 251 258 268 270 263
85 82 75 71 65 56 37 16 4 5 12 18 18 17 16 13 10 4 357 353 348 341 332 315 296 284 283 284 277 276 278 274 265 260 257 257 258 259 261 264 265 265 266 269 271 273 275 277 280 282 283 284 286 288 289 287 284 281 278 276 276 276 279 281 276 272 272 272 267 262 262 266 269 272
74 75 72 68 65 57 40 22 8 4 3 10 20 22 13 7 2 356 350 345 347 346 341 339 328 309 303 304 297 289 287 285 278 272 267 264 262 262 263 264 266 268 270 270 271 274 276 279 282 283 280 278 279 281 284 287 287 286 282 279 278 277 278 281 283 282 280 278 275 271 270 269 269 273
307 330 293 303 302 69 60 39 18 9 359 357 7 11 6 -0 352 348 344 339 342 349 342 338 340 327 318 318 312 303 298 296 294 291 287 280 275 271 269 268 269 270 271 271 271 272 274 277 280 280 277 275 277 279 279 281 284 286 287 286 283 281 279 277 278 279 281 282 280 276 271 267 266 273
269 273 267 264 263 268 314 13 15 9 355 349 358 2 356 352 345 342 341 336 337 346 345 337 337 334 327 326 324 315 307 303 300 300 304 301 294 289 285 284 284 281 279 278 276 274 274 275 275 276 277 277 278 279 278 279 280 281 284 287 287 286 283 280 278 277 277 279 282 283 279 271 268 274
270 275 273 269 266 273 291 309 334 345 340 333 343 353 349 346 342 337 335 332 330 335 340 339 336 334 331 329 330 325 318 312 303 295 298 302 304 308 309 307 309 306 298 291 287 284 282 281 280 280 279 279 278 276 276 278 280 281 282 283 287 289 287 285 282 281 279 279 279 281 282 280 276 276
278 279 279 276 271 272 284 293 304 318 322 321 327 336 336 335 334 330 328 325 324 325 330 334 333 331 330 328 327 324 318 314 309 301 297 294 294 304 311 310 312 316 315 311 304 298 291 287 285 282 280 279 276 274 274 275 277 280 281 282 283 286 288 288 285 283 281 279 277 277 277 278 279 279
287 287 283 280 278 276 280 286 289 298 304 304 307 313 320 324 324 322 320 319 318 318 321 325 327 326 325 324 323 319 313 311 311 307 305 303 296 293 294 300 306 310 312 310 305 300 292 287 285 284 283 282 278 275 274 276 277 279 281 281 282 284 287 288 286 283 280 277 275 274 274 275 277 277
287 289 285 281 280 278 280 285 285 286 290 290 292 301 309 315 316 315 314 313 313 314 314 317 320 321 319 319 319 316 311 309 309 307 306 308 305 301 297 299 304 306 305 302 297 291 287 286 285 285 285 285 284 281 277 274 273 274 276 278 279 284 289 293 293 290 285 281 276 272 271 272 273 275
279 283 282 277 276 278 279 283 284 284 286 288 287 292 300 304 305 306 307 309 310 311 311 312 315 316 316 315 316 314 310 309 309 308 306 306 304 303 302 302 301 300 299 298 294 290 291 292 290 287 285 285 286 285 281 277 274 272 271 271 272 277 285 294 303 304 299 292 283 274 270 269 270 272
273 274 274 271 270 273 275 277 281 282 280 281 281 283 288 294 298 301 304 306 307 308 309 310 311 312 314 314 314 311 308 305 303 302 303 303 302 299 298 300 301 299 294 290 288 287 290 291 290 287 286 286 288 289 285 280 276 273 269 266 265 267 274 285 296 303 305 302 292 280 271 268 269 269
271 270 270 268 267 270 274 275 279 280 279 281 280 280 286 291 296 300 303 305 306 305 306 308 308 309 310 312 311 308 305 303 300 299 300 300 299 297 295 297 300 298 294 290 289 289 289 285 280 278 279 280 284 289 289 282 274 269 266 263 260 258 262 271 281 290 297 301 299 290 279 272 270 270
269 267 266 266 266 268 271 273 275 276 279 281 280 283 293 298 299 300 303 304 304 304 307 309 309 308 308 311 311 309 310 311 309 304 300 298 296 295 293 291 292 292 291 288 286 288 290 285 278 274 274 276 280 282 285 284 277 269 265 262 258 256 256 259 265 273 281 286 289 290 284 277 272 270
264 263 263 264 264 265 266 268 271 274 278 281 283 290 299 303 302 304 305 305 303 306 311 316 317 315 313 314 315 314 314 312 308 304 303 302 300 299 297 293 290 289 289 286 282 281 282 280 277 275 274 277 282 282 279 278 276 271 266 261 257 257 259 257 258 261 265 268 272 277 280 278 275 273
258 257 259 261 260 261 262 264 267 271 275 280 288 297 303 305 304 304 306 306 307 312 317 321 323 322 319 317 317 317 316 311 307 305 305 306 306 306 305 301 298 297 296 294 289 285 284 283 281 278 276 276 280 283 279 274 272 270 268 266 260 257 259 258 257 257 257 259 264 269 274 276 275 275
251 253 257 258 257 257 258 262 266 268 273 285 296 301 302 301 300 301 303 305 308 315 319 320 322 322 321 318 317 318 316 313 310 308 307 309 309 308 307 304 301 301 302 301 297 292 290 291 290 285 281 279 281 282 278 274 272 270 268 269 268 263 261 260 258 256 255 256 259 264 268 270 272 273
249 251 254 254 253 252 252 257 264 267 275 288 295 296 295 293 295 298 301 304 308 313 315 314 315 317 317 317 317 317 315 313 312 311 309 310 309 308 307 305 303 304 305 305 301 296 294 296 297 293 288 286 286 282 277 275 274 274 273 273 272 270 267 263 261 259 257 257 259 261 263 265 268 271
253 254 254 253 252 252 253 258 262 267 277 285 288 289 289 289 292 296 300 304 306 306 306 306 308 311 312 313 313 313 312 311 311 311 309 308 307 306 305 304 304 305 307 307 305 300 297 298 298 296 293 292 290 286 280 277 276 276 278 278 275 272 270 266 263 261 260 260 259 260 261 262 264 267
255 252 249 245 243 246 255 261 263 268 275 280 282 284 285 286 290 294 298 300 299 298 300 302 305 308 309 309 309 309 309 308 307 306 305 304 303 303 302 301 301 302 302 304 303 298 296 297 298 297 297 294 291 289 286 283 281 279 279 280 279 277 273 270 267 265 264 263 263 262 263 263 263 265
249 243 240 240 240 244 253 257 258 263 269 274 277 279 279 281 283 288 293 294 293 294 297 299 301 302 304 305 305 305 305 304 303 301 299 299 299 298 297 297 298 299 299 300 297 293 293 297 300 303 303 298 294 293 291 289 286 281 278 280 284 284 279 275 272 269 268 267 267 266 266 266 266 266
240 233 235 241 247 249 248 247 252 260 267 273 276 275 274 275 278 284 288 288 289 290 291 292 294 296 298 299 299 299 298 298 298 297 295 296 296 294 293 294 295 296 296 295 294 293 294 298 301 303 304 301 298 298 297 295 292 285 279 279 281 282 280 276 273 271 269 268 268 268 268 268 268 268
234 229 231 239 245 245 243 247 255 263 268 273 274 271 270 272 277 281 281 280 281 282 283 284 286 288 290 292 292 292 292 292 292 291 291 292 292 291 291 292 293 294 294 295 295 293 292 293 292 293 296 296 293 292 297 298 295 286 278 276 277 277 276 273 272 271 270 270 271 271 272 272 272 272
232 232 238 245 246 244 247 254 259 263 266 270 269 267 268 271 275 277 277 277 279 281 282 283 285 288 289 290 291 291 291 291 291 291 290 291 291 290 289 290 292 293 294 296 296 290 287 288 289 291 295 295 292 288 288 294 295 289 280 274 274 274 272 271 271 271 271 271 271 272 274 276 277 278
245 246 251 254 252 249 251 256 259 261 264 266 267 267 270 274 276 278 279 281 284 286 287 289 291 293 294 295 295 296 296 298 298 298 297 296 294 292 289 289 289 288 288 291 293 290 289 291 292 292 290 288 288 285 279 279 286 289 286 284 282 280 276 272 269 268 271 274 276 279 281 282 281 280
259 258 256 254 251 250 252 255 259 262 264 267 269 272 274 276 278 280 282 284 286 288 290 292 293 295 297 298 299 300 301 302 304 304 304 303 300 296 291 289 288 286 287 289 290 287 286 287 290 293 289 283 284 286 284 281 279 280 285 289 289 286 284 281 275 272 272 275 278 283 286 286 286 285
263 261 258 255 253 252 255 258 260 263 267 272 275 276 277 279 281 283 284 286 287 288 290 293 296 299 302 302 302 302 303 304 306 306 305 304 301 298 293 289 288 287 289 292 292 287 283 282 285 288 287 284 283 284 286 286 283 280 282 286 288 289 290 289 287 285 282 279 278 281 283 285 289 291
263 261 261 261 260 259 260 262 266 271 276 278 279 280 282 284 285 286 286 287 289 291 294 298 301 304 305 303 302 303 304 305 305 303 301 299 297 295 294 290 287 286 288 289 289 285 281 280 280 279 280 281 283 283 283 285 287 287 285 282 282 286 291 293 294 293 292 289 287 287 286 285 288 292
262 261 261 261 262 263 265 269 274 278 280 281 283 285 285 286 286 287 289 292 294 297 300 301 303 304 304 304 303 302 302 302 300 298 297 296 294 293 292 291 289 288 287 286 283 279 277 277 275 274 274 275 277 278 279 282 284 286 286 283 282 285 289 292 294 295 295 295 293 291 288 284 283 286
260 260 261 263 264 266 269 273 276 279 282 284 285 285 284 286 288 290 293 296 298 300 301 302 303 303 304 304 302 299 297 295 294 295 295 294 293 292 291 290 289 288 288 287 284 279 275 273 273 272 271 271 272 273 275 278 280 281 283 283 282 284 286 288 292 294 295 295 294 292 289 283 280 282
261 262 263 264 265 267 269 272 275 277 279 279 279 281 284 287 290 292 295 296 298 299 299 300 300 300 300 299 297 295 292 290 290 292 292 291 292 292 291 290 289 287 287 286 283 279 274 272 272 271 269 268 268 270 271 273 276 278 280 280 280 282 284 287 292 294 295 296 297 298 298 293 287 287
259 259 260 262 264 268 271 273 275 276 278 279 281 284 286 288 290 291 292 293 294 295 296 296 296 296 297 296 295 293 289 286 287 288 288 289 290 292 293 293 290 289 288 286 283 278 274 271 271 271 268 264 264 268 271 272 273 274 275 276 277 279 282 285 288 290 292 294 295 298 302 300 293 292
258 260 263 268 273 276 278 279 281 283 285 288 289 290 290 289 290 290 289 290 290 292 294 296 296 298 299 299 297 294 288 285 285 286 286 287 289 291 293 292 291 292 291 288 284 279 274 270 268 267 265 262 261 264 269 271 271 273 273 273 273 275 277 279 282 284 286 288 289 293 296 293 289 291
264 269 274 279 281 282 283 285 288 290 291 292 293 293 292 291 290 292 294 296 297 298 299 300 300 301 302 301 300 297 292 288 288 289 289 289 290 291 291 290 291 292 291 288 286 283 279 275 270 265 263 261 260 261 264 267 268 270 271 272 273 274 274 275 277 278 280 282 284 285 285 283 284 291
272 277 282 283 283 285 288 292 295 297 298 299 298 297 297 298 300 302 304 305 306 306 306 305 304 303 303 303 303 301 297 295 294 293 292 292 292 292 290 290 291 292 290 288 286 285 284 282 278 273 269 265 263 261 261 264 267 268 269 273 276 277 276 276 277 278 278 278 278 276 274 278 285 291
279 281 283 283 285 289 293 298 302 304 305 306 306 305 305 307 308 309 309 309 309 308 308 308 307 307 307 307 306 304 302 300 297 295 293 292 291 290 290 289 290 290 290 288 287 286 285 284 282 279 275 272 270 265 259 259 264 268 273 276 277 277 277 277 277 278 275 272 270 267 265 272 280 284
280 281 282 285 289 296 302 307 309 309 310 311 313 312 311 310 310 310 310 310 310 310 311 312 312 312 310 308 306 304 302 299 297 294 292 290 289 288 287 286 286 287 286 286 286 286 286 283 280 278 275 274 273 269 264 262 263 268 273 275 275 274 274 274 275 275 269 264 261 259 261 268 276 281
281 285 288 295 304 311 314 313 311 311 313 313 312 311 310 309 310 311 313 315 316 316 315 312 311 309 308 306 305 303 301 299 296 294 292 290 289 287 285 284 283 283 283 282 283 284 283 281 278 274 271 270 269 269 271 274 275 275 277 278 275 271 267 266 269 270 265 259 255 256 261 266 269 275
296 303 306 311 316 317 315 313 312 313 313 311 311 313 315 316 318 320 322 321 319 317 314 312 311 310 310 309 308 305 304 302 298 295 293 291 289 286 284 284 283 283 282 282 282 281 280 277 274 270 267 266 265 266 271 276 277 279 283 284 280 272 264 260 258 258 260 260 256 255 259 261 261 266
315 315 316 317 316 315 314 312 311 312 315 320 326 330 329 327 326 324 322 320 319 319 319 318 318 318 316 314 312 311 309 306 302 299 296 294 291 289 287 285 283 282 281 280 279 279 277 273 270 267 264 262 261 262 265 268 270 272 275 273 270 266 262 259 258 258 260 260 258 255 252 250 250 257
317 315 315 316 316 314 310 309 314 326 338 343 344 341 336 332 329 326 325 326 327 328 327 326 324 323 321 319 318 316 313 309 305 302 300 297 294 292 290 287 285 283 281 279 278 276 273 269 268 266 265 263 263 263 262 262 264 266 264 260 256 253 253 257 259 259 256 255 257 255 248 242 241 244
315 314 314 316 315 310 308 319 338 351 355 351 347 345 344 342 340 337 335 335 335 333 333 332 329 327 326 325 323 320 315 311 308 305 303 301 298 295 293 290 288 285 281 279 277 276 275 274 272 270 268 266 265 262 257 257 260 261 257 252 251 250 254 259 258 251 247 251 254 248 239 235 236 234
315 316 319 317 313 313 326 345 354 357 356 352 350 349 347 345 344 343 341 340 339 338 337 336 333 332 331 330 327 322 317 314 312 310 308 305 301 299 297 294 291 288 285 282 281 280 280 278 273 268 267 265 257 251 249 251 256 258 254 254 255 254 257 260 253 243 243 254 258 246 232 225 224 220
320 322 320 315 317 330 343 349 355 358 357 353 350 348 346 345 346 347 345 342 341 341 340 338 336 335 335 333 330 325 321 319 317 314 311 308 305 303 301 299 296 294 291 288 287 286 283 276 266 262 262 256 243 239 243 248 249 248 250 257 262 262 259 260 254 236 229 240 256 252 241 234 228 227
335 328 316 312 323 337 341 350 1 2 357 351 348 347 346 346 346 347 347 344 342 342 341 339 338 337 338 338 336 331 327 324 321 317 314 311 308 305 304 304 304 301 296 292 290 287 280 267 257 256 257 247 234 232 239 239 235 239 248 256 262 266 265 264 260 224 209 215 229 239 237 236 238 260
347 326 312 308 316 332 349 2 5 -0 353 349 348 346 347 347 347 347 348 346 343 342 342 341 339 339 341 342 340 336 332 329 326 322 317 314 310 307 308 311 312 308 302 295 289 283 272 254 247 251 250 238 227 226 229 228 227 238 252 255 256 261 260 256 247 218 201 202 213 219 216 221 235 270